Location: Newark
(15.4608°S, 41.1635°W)
Time: 20:43:25
(UTC+00:00)

Hubble Space Telescope - Visible Passes

Search period start: 08 December 2019 00:00
Search period end: 18 December 2019 00:00
Orbit: 536 x 540 km, 28.5° (Epoch: 07 December)

Date Brightness Start Highest point End Pass type
(mag) Time Alt. Az. Time Alt. Az. Time Alt. Az.
08 Dec 3.0 06:07:03 17° NE 06:07:03 17° NE 06:08:05 10° NE visible
08 Dec 2.8 07:43:51 10° NW 07:44:59 11° NNW 07:46:06 10° NNW visible
08 Dec 2.9 23:03:07 10° WSW 23:06:31 24° SSW 23:08:10 19° SSE visible
09 Dec 3.2 22:52:54 10° WSW 22:56:02 20° SSW 22:58:46 12° SSE visible
10 Dec 3.3 22:42:43 10° SW 22:45:35 18° SSW 22:48:26 10° SSE visible
11 Dec 3.5 22:32:33 10° SW 22:35:08 16° S 22:37:43 10° SSE visible
12 Dec 3.5 22:22:21 10° SW 22:24:42 14° S 22:27:03 10° SSE visible
13 Dec 4.0 00:04:28 10° SSW 00:04:46 11° SSW 00:04:46 11° SSW visible
13 Dec 3.5 22:12:09 10° SW 22:14:17 14° S 22:16:26 10° SSE visible
13 Dec 3.8 23:53:48 10° SSW 23:54:44 13° SSW 23:54:44 13° SSW visible
14 Dec 3.5 22:01:51 10° SSW 22:03:52 13° S 22:05:54 10° SSE visible
14 Dec 3.5 23:43:06 10° SSW 23:44:38 15° S 23:44:38 15° S visible
15 Dec 3.4 21:51:28 10° SSW 21:53:28 13° S 21:55:27 10° SSE visible
15 Dec 3.2 23:32:22 10° SW 23:34:30 18° S 23:34:30 18° S visible
16 Dec 3.4 21:40:59 10° SSW 21:43:03 13° S 21:45:07 10° SSE visible
16 Dec 2.8 23:21:37 10° SW 23:24:21 22° S 23:24:21 22° S visible
17 Dec 2.4 23:10:54 10° SW 23:14:11 27° S 23:14:11 27° S visible
